Theta_e
348 345 346 347 346 346 346 346 347 349 348 347 346 347 346 345 345 345 346 345 344 344 344 342 341 342 342 342 343 342 342 344 347 351 352 343 332 331 332 332 332 332 334 338 341 345 346 347 348 348 348 348 346 346 343 344 347 345 344 346 346 344 344 343 340 342 348 347 348 350 349 349 348 347 347 346 346 347 347 348 347 348 348 347 346
348 346 347 348 347 347 346 346 347 347 347 346 346 346 345 345 346 345 344 344 344 344 343 343 343 343 343 343 342 343 343 343 344 348 352 345 332 329 332 331 331 332 333 334 334 337 340 341 342 343 344 345 344 343 342 342 343 343 343 344 343 341 339 338 338 343 347 345 346 350 349 349 350 350 351 350 349 349 349 349 349 349 350 349 349
348 347 347 347 347 346 345 346 347 347 347 347 347 347 346 345 346 344 344 345 345 344 344 343 343 343 343 344 344 346 345 344 343 345 349 348 338 332 331 331 332 332 333 334 335 336 337 337 336 337 338 339 338 340 340 339 341 341 342 340 339 339 338 339 341 342 343 342 343 345 345 345 346 347 350 351 350 350 350 351 351 351 351 350 350
349 348 347 348 347 346 345 346 348 347 348 348 346 347 347 347 346 345 344 345 345 345 344 343 344 343 343 344 343 344 344 341 339 342 346 348 348 345 339 335 335 334 335 336 338 340 340 340 339 339 338 338 337 337 338 338 339 340 339 339 339 338 339 340 341 341 341 342 342 342 342 343 343 343 348 351 350 350 351 351 351 351 352 352 352
349 349 349 348 346 346 345 345 347 348 347 347 346 347 348 348 347 346 345 346 345 344 343 343 344 343 343 343 341 343 345 340 341 344 346 348 351 352 348 344 342 340 339 338 340 343 343 344 343 343 343 343 341 341 340 340 339 339 339 338 339 339 339 340 341 341 341 341 342 343 343 344 344 343 347 351 351 351 351 351 351 351 353 353 353
350 349 348 347 346 346 346 346 347 349 349 348 348 349 349 348 348 347 346 345 346 345 343 342 344 344 343 344 344 346 345 343 344 346 346 348 349 349 351 352 351 349 348 344 341 344 346 345 346 347 347 346 346 345 344 344 343 343 341 341 341 340 341 341 342 342 343 344 345 345 346 346 346 345 348 351 352 351 351 352 353 353 354 354 354
353 351 349 349 349 351 351 351 351 351 352 351 351 352 351 350 349 348 347 345 344 344 343 340 340 344 344 343 345 345 343 343 343 345 345 346 347 349 351 353 354 354 355 352 347 344 344 346 346 348 349 350 349 350 349 349 349 348 348 346 346 345 345 346 346 346 347 347 348 348 348 348 347 349 350 352 353 353 353 353 354 354 354 354 355
356 353 351 351 352 353 354 353 353 354 355 354 352 351 352 352 351 351 350 347 344 342 343 340 339 343 342 341 346 344 344 345 343 343 345 346 346 349 349 350 353 353 354 357 354 347 345 347 349 349 350 352 351 351 352 352 352 351 351 351 350 350 350 350 350 350 350 350 349 348 348 348 350 352 353 353 354 353 353 353 354 354 354 353 354
357 354 352 351 351 352 355 355 354 355 356 354 352 351 351 352 352 353 352 350 347 343 342 340 342 345 343 342 344 343 345 347 345 342 345 347 347 349 348 348 352 353 354 356 355 353 352 352 352 350 347 348 349 350 351 350 351 351 351 352 352 352 352 351 351 350 349 349 348 348 349 350 351 351 352 352 352 351 351 351 351 351 350 350 351
355 355 353 352 352 352 355 356 355 357 357 354 353 353 353 353 353 354 354 351 349 345 343 342 342 343 342 342 342 342 343 344 345 344 345 347 347 347 348 349 351 350 351 354 352 353 355 354 356 353 349 349 349 350 352 349 346 346 347 349 350 351 351 350 349 348 347 346 346 347 348 347 348 348 348 348 349 349 349 349 348 347 345 343 342
353 355 355 354 353 353 355 356 355 357 357 354 354 356 355 355 354 355 355 352 349 345 344 344 342 341 340 342 344 343 343 345 348 346 342 344 346 346 346 348 349 348 349 352 350 351 353 353 355 356 354 355 354 354 355 346 340 340 340 343 345 347 348 346 344 343 343 343 343 343 343 344 344 344 345 345 346 347 348 346 342 340 340 338 335
354 354 354 355 353 354 356 355 354 356 358 355 354 356 356 356 356 357 356 353 348 344 344 343 341 343 342 343 346 346 346 346 344 342 341 344 346 344 344 346 348 349 350 350 349 349 351 351 353 355 355 355 355 356 355 343 337 336 335 336 338 340 341 339 339 340 340 341 342 343 343 344 344 344 343 343 344 346 346 345 339 337 339 339 336
357 355 357 357 353 354 357 356 355 356 359 357 354 356 357 357 358 357 356 351 346 343 344 343 344 344 343 345 345 344 347 349 345 341 342 342 343 343 344 346 346 346 346 346 348 348 347 348 350 353 354 355 356 359 356 345 338 338 337 338 338 338 340 340 342 343 345 346 347 348 348 349 349 349 348 347 345 344 344 344 342 340 339 340 340
357 358 360 359 354 356 357 357 357 356 357 357 355 357 358 358 359 358 355 351 346 345 346 348 349 343 341 346 347 346 346 347 346 344 342 341 340 342 344 346 345 344 345 347 349 347 344 344 347 350 352 353 355 359 357 350 343 342 343 344 345 345 346 346 348 348 348 349 350 351 351 351 352 351 352 351 351 349 346 344 344 343 342 341 341
357 357 360 360 357 358 357 357 357 356 358 358 356 357 359 358 359 358 356 352 347 347 349 351 350 342 346 356 355 356 358 349 343 343 342 341 341 343 342 342 344 344 345 346 346 345 343 342 346 351 351 351 353 354 353 350 351 352 351 347 346 347 348 349 349 349 350 350 350 351 351 352 352 352 353 353 353 353 351 348 345 344 344 343 342
356 357 359 359 359 358 358 357 358 358 360 358 356 357 358 357 359 358 357 355 350 346 349 351 349 349 361 368 358 358 364 352 342 343 341 342 341 342 342 339 343 345 345 343 344 344 343 342 346 350 350 348 347 346 348 349 355 359 355 347 345 345 347 349 349 350 350 350 350 350 351 352 352 353 353 353 353 353 353 353 350 347 345 346 344
357 358 357 358 359 360 360 358 358 359 358 358 357 358 357 357 358 358 358 359 356 349 348 349 349 350 357 366 366 368 366 351 346 349 342 341 341 339 342 341 342 344 344 342 344 344 343 344 345 345 344 344 343 343 345 349 356 359 351 345 345 345 347 349 350 351 351 351 351 351 351 351 353 353 353 353 353 353 352 353 353 351 347 346 346
358 359 357 358 359 359 360 359 358 359 358 358 358 357 357 356 356 358 358 359 358 353 350 350 349 347 346 351 357 362 362 355 360 365 351 342 340 339 341 342 341 342 341 342 345 342 342 345 344 341 342 342 343 344 345 347 353 356 352 347 346 347 348 349 351 352 353 352 352 351 351 351 353 353 353 353 354 354 353 352 352 353 351 349 347
358 359 358 358 359 359 360 359 358 358 358 357 356 355 357 357 356 358 358 357 358 355 353 352 351 349 347 346 343 344 350 355 361 370 368 355 345 341 342 341 342 343 342 342 344 341 342 346 343 341 342 342 344 345 343 345 351 353 354 352 348 348 348 349 351 352 352 353 352 352 352 352 353 353 353 354 353 354 354 353 351 351 353 352 350
358 359 359 358 358 359 360 359 359 357 358 357 354 354 357 358 357 358 358 356 356 357 355 353 352 351 349 349 347 343 342 347 352 358 366 367 355 345 344 342 341 343 343 342 343 341 341 342 341 343 343 342 346 347 343 345 349 351 354 354 350 349 349 350 350 351 352 352 352 352 352 353 353 354 353 351 351 352 354 354 354 353 351 351 351
358 358 359 358 358 360 359 359 359 357 357 357 354 356 359 360 360 361 359 356 354 358 357 353 352 352 350 349 348 347 344 345 347 347 355 366 368 354 344 343 342 341 341 341 341 342 342 341 341 342 342 343 346 347 344 345 348 348 351 351 349 348 348 349 349 349 348 347 348 348 349 349 350 350 349 348 349 351 354 355 355 353 351 348 349
358 358 358 358 358 359 358 357 358 356 356 358 357 359 360 361 362 361 359 358 358 359 357 354 354 353 350 349 347 349 349 348 349 348 347 356 365 354 342 347 348 343 341 340 340 341 342 342 343 342 342 342 344 345 345 346 348 348 349 350 351 350 350 350 351 349 347 345 345 344 344 343 344 346 347 348 350 352 354 355 354 354 351 348 347
357 358 359 359 358 359 358 356 356 356 357 359 358 356 357 359 360 358 358 359 359 359 358 354 354 353 350 349 350 350 351 352 350 351 348 350 362 357 342 344 347 342 343 343 341 342 343 343 343 344 344 343 343 345 345 347 350 349 348 350 351 352 351 351 352 353 353 351 347 344 343 341 342 345 346 347 347 349 350 352 353 352 351 350 349
356 358 357 357 358 358 358 356 356 355 356 358 357 355 356 358 359 359 359 359 358 358 359 356 354 354 353 352 352 349 349 351 348 351 350 347 357 359 345 344 348 345 343 344 345 345 343 344 344 343 344 345 344 345 347 348 349 348 349 350 350 350 349 350 352 355 356 352 347 345 343 339 340 341 340 339 339 341 343 346 350 351 351 350 350
355 356 356 356 358 357 359 358 357 357 356 359 360 358 357 358 359 359 358 358 360 358 358 358 355 353 354 353 351 348 348 350 348 350 350 345 350 356 351 350 351 347 345 346 348 348 344 343 345 344 344 347 346 347 347 346 346 348 350 349 347 347 347 349 353 356 356 353 348 347 342 336 336 335 333 333 332 332 335 339 344 348 351 351 350
356 356 355 355 357 357 359 360 359 360 360 360 361 358 358 358 358 358 357 357 359 359 357 357 355 353 354 354 352 350 349 350 348 349 349 348 350 354 355 356 353 346 346 347 346 347 347 344 343 344 345 347 347 347 348 346 346 348 348 347 348 348 349 351 354 356 356 353 350 348 341 333 333 334 332 332 330 330 331 332 336 341 345 349 350
356 356 355 355 357 357 358 360 360 361 361 360 360 358 358 358 358 358 359 358 358 359 359 357 356 354 354 354 354 352 350 349 350 350 350 351 351 351 355 364 365 358 350 349 347 346 347 345 344 345 345 346 347 349 350 347 347 348 347 345 348 349 350 351 354 357 358 354 350 349 343 336 334 334 332 331 330 330 331 330 332 334 338 342 345
357 356 356 356 356 357 358 359 361 361 361 360 360 359 357 357 357 357 358 360 358 359 358 357 355 354 353 353 353 352 351 351 350 350 350 353 355 353 353 361 369 368 363 359 356 350 348 347 346 348 347 347 349 350 350 349 347 348 348 347 350 351 350 350 352 355 355 351 350 350 346 340 336 334 333 331 331 330 331 332 332 333 334 336 340
358 358 358 358 357 359 359 359 361 362 361 361 360 359 358 357 358 358 358 359 360 360 360 358 356 354 352 353 353 351 351 351 350 350 352 353 354 353 351 353 361 368 371 369 363 355 351 349 347 349 349 349 351 350 350 350 348 348 349 349 351 351 350 351 350 350 350 350 350 351 349 343 341 339 336 334 333 333 334 335 336 334 334 334 336
357 357 359 359 360 361 360 359 361 361 361 361 360 360 360 358 358 359 358 359 363 362 361 358 357 356 354 355 355 354 351 351 351 351 353 354 355 353 353 351 355 362 367 368 366 358 353 351 348 349 351 351 350 350 350 350 350 349 351 350 350 351 352 352 352 350 350 350 350 351 350 347 345 344 340 338 337 338 338 340 341 339 337 335 335
355 356 358 360 361 362 361 361 362 361 361 361 359 360 361 360 360 361 359 360 360 360 360 359 357 356 356 356 355 355 355 355 353 353 353 355 356 354 354 354 355 357 356 360 366 362 354 353 352 349 351 350 350 351 350 350 350 351 351 350 350 351 353 352 351 351 351 350 348 349 349 348 347 344 341 340 340 342 343 345 346 345 342 338 335
356 357 357 358 359 361 361 361 361 361 361 361 360 360 360 359 359 359 359 359 360 361 361 360 357 357 358 360 358 357 358 357 355 355 354 353 354 354 354 355 355 357 355 357 364 363 356 356 356 352 351 352 351 351 352 352 353 353 352 351 351 351 353 353 352 350 349 347 346 347 348 348 345 343 341 341 342 343 346 347 348 350 348 343 337
357 358 358 357 358 359 358 358 359 359 360 360 359 360 360 359 359 359 361 361 360 362 362 360 359 359 359 360 361 360 359 359 357 356 353 353 352 352 353 354 354 356 358 358 362 363 359 357 358 357 354 354 353 352 353 354 355 354 353 353 353 354 353 352 351 348 347 346 345 346 347 344 341 341 341 341 341 345 347 347 349 350 351 349 343
358 357 357 358 358 358 358 356 356 357 358 358 359 359 360 361 360 360 361 360 359 360 360 360 360 360 359 361 361 361 360 358 357 356 354 351 352 352 352 354 354 355 356 358 361 362 361 358 359 359 357 356 355 354 355 356 355 355 355 353 354 354 352 350 350 348 347 346 345 344 343 340 340 341 341 340 341 345 347 346 347 349 351 351 349
358 357 356 356 357 358 357 355 356 357 358 359 359 360 360 361 362 359 358 358 359 360 359 358 359 359 359 359 360 359 357 355 354 355 355 353 352 353 352 352 355 353 353 357 359 360 360 360 359 360 359 358 357 357 357 357 356 355 353 352 352 352 351 351 350 350 348 346 343 343 341 341 341 341 340 341 343 346 347 347 347 349 350 352 352
356 357 356 356 357 358 357 357 357 358 360 360 358 358 359 360 361 361 359 358 359 360 360 360 359 359 359 358 359 357 356 354 354 354 355 355 353 352 353 354 355 355 355 357 358 358 360 361 361 360 360 359 359 358 359 357 356 354 353 353 352 351 351 352 351 350 348 345 345 344 343 342 342 342 344 344 346 347 347 346 347 348 349 351 354
355 356 356 357 358 359 358 359 359 359 361 361 358 357 358 359 360 361 360 359 359 360 361 361 360 360 359 359 358 357 356 355 355 355 355 355 355 354 356 355 355 356 357 358 358 358 359 360 360 359 359 359 359 357 356 355 354 353 352 350 349 350 351 351 349 348 347 347 348 347 346 345 345 346 347 346 347 347 347 348 348 348 349 351 354
354 355 356 357 359 361 359 359 361 360 360 362 360 359 357 359 360 359 359 360 360 360 359 360 359 359 359 358 356 356 356 355 355 356 355 355 356 356 355 354 354 355 357 357 357 358 358 359 359 360 359 358 356 355 352 351 351 350 348 348 349 349 348 348 347 347 349 350 348 347 348 348 349 348 348 347 348 349 349 350 351 351 351 352 353
353 354 355 355 357 360 360 358 360 361 361 362 362 361 361 360 360 359 359 360 360 360 359 359 358 357 357 357 355 355 355 355 354 354 354 354 354 354 353 354 355 356 356 356 356 356 356 357 357 358 357 355 354 353 350 350 350 349 348 349 349 347 346 347 347 349 349 348 347 348 350 349 349 348 348 349 351 351 352 353 354 354 353 353 354
351 352 354 354 354 357 360 359 358 359 361 361 362 362 363 362 360 360 359 359 359 359 358 358 356 356 355 354 354 352 352 353 354 354 354 354 354 353 354 355 354 355 356 356 356 356 356 356 356 356 356 355 355 353 352 352 352 351 349 348 347 347 346 347 348 348 348 348 349 352 351 350 350 349 350 351 351 353 355 356 356 355 355 356 355
350 349 350 351 352 354 356 357 357 357 359 361 362 361 362 362 362 360 359 358 357 357 357 357 356 355 354 353 351 349 349 350 353 354 355 353 352 353 353 354 354 355 357 357 357 357 358 358 358 357 356 356 355 353 353 352 350 348 346 347 349 350 348 349 349 349 351 352 352 353 354 353 353 353 354 353 353 354 356 357 357 357 358 356 355
346 347 346 348 348 349 351 354 356 356 356 357 359 359 360 360 361 360 357 355 356 356 357 356 356 354 353 351 349 349 349 349 349 351 352 351 351 351 350 349 349 352 355 358 358 359 359 359 360 358 356 355 353 351 351 350 348 348 351 352 354 353 353 356 356 355 354 354 355 356 356 356 356 357 357 358 357 357 357 357 357 357 356 355 355
349 348 348 346 347 347 348 349 351 353 353 351 352 355 356 357 358 356 354 354 355 356 357 358 357 356 354 352 350 349 347 348 349 350 350 351 351 350 348 346 346 347 349 352 355 356 357 357 357 355 355 355 353 352 352 351 350 353 354 355 356 356 358 360 360 359 357 356 357 359 357 355 357 359 360 360 358 358 357 358 356 355 356 355 356
351 351 351 350 351 350 350 348 349 350 351 350 350 351 353 355 357 356 354 352 352 352 354 356 355 354 353 353 352 351 350 352 353 354 354 355 354 352 351 351 351 350 350 351 351 351 354 356 357 356 356 355 354 355 354 354 354 355 355 356 357 359 360 361 361 360 357 356 357 358 358 356 357 361 360 359 358 357 357 356 355 355 356 356 357
352 353 352 350 351 351 351 350 351 351 350 350 350 350 352 354 356 357 355 352 351 351 351 351 351 350 352 353 352 353 353 352 354 357 357 357 353 351 353 355 356 356 357 357 354 353 351 352 353 353 353 354 355 356 355 356 356 356 356 356 357 357 358 359 359 358 355 355 357 358 359 358 358 360 359 357 355 355 355 355 356 356 357 357 357
355 355 353 352 351 352 352 351 353 353 351 351 351 352 353 354 354 355 354 353 352 351 350 351 351 350 352 353 353 352 352 353 355 357 358 358 357 355 353 355 356 357 358 360 359 357 355 353 352 352 351 352 354 355 355 356 356 356 356 355 355 356 356 356 356 356 356 356 358 359 360 360 358 357 356 354 354 355 354 355 357 357 357 357 357
354 355 355 354 354 353 353 352 352 352 352 352 352 352 352 353 353 353 352 353 353 351 351 353 354 352 351 352 352 353 352 354 356 357 357 358 360 359 357 357 358 357 357 358 357 356 356 355 354 355 355 354 354 356 355 355 355 355 354 355 356 356 356 356 357 357 358 357 357 358 360 358 356 356 356 356 355 356 355 355 356 357 357 358 357
351 353 354 354 353 352 352 352 350 349 351 351 352 352 353 352 352 353 354 355 355 354 355 357 355 353 352 352 354 355 355 355 356 356 355 356 357 358 359 359 358 357 357 356 355 354 354 353 353 354 356 356 356 356 355 354 354 355 356 355 356 356 357 358 358 357 357 357 356 357 358 357 357 357 357 358 357 356 355 354 355 357 358 357 357
349 350 351 351 351 350 350 351 348 346 346 349 350 351 351 352 352 353 354 356 357 356 358 358 355 353 352 353 354 354 353 353 353 352 353 353 353 354 356 357 357 357 357 356 356 356 356 354 354 355 355 355 356 355 354 355 356 357 357 356 356 356 357 358 358 357 357 357 357 357 357 357 357 358 357 357 356 356 355 355 355 355 356 357 358
347 346 346 347 347 348 347 347 346 344 344 346 348 348 349 350 351 351 353 356 357 356 356 356 354 353 352 352 352 352 351 351 351 351 351 351 351 351 353 355 355 355 356 356 355 355 355 355 354 354 354 355 355 356 355 355 355 356 356 356 356 357 356 356 357 357 357 356 356 356 356 356 355 356 356 356 355 355 356 356 356 355 355 357 356
345 343 344 345 346 345 344 344 344 342 342 342 343 344 345 346 348 349 351 354 355 354 354 354 354 352 351 349 349 348 349 349 348 349 348 348 348 347 348 351 354 355 355 353 352 352 352 353 353 353 354 355 355 354 354 354 354 353 353 354 355 355 355 354 354 354 355 355 355 354 354 354 354 355 356 356 356 355 355 355 356 356 356 355 355
Wind_Speed
13 13 13 12 10 9 9 9 8 7 7 7 7 7 7 7 5 3 4 6 7 7 7 8 8 9 9 9 8 8 7 7 8 7 4 6 6 4 4 4 4 4 4 3 4 3 3 3 3 2 2 1 1 0 1 2 0 0 1 0 1 1 1 2 2 2 3 3 3 3 3 3 3 3 5 5 3 2 2 3 4 5 6 5 5
13 13 13 11 8 8 9 10 9 7 6 6 7 6 6 5 3 3 6 8 7 6 7 8 8 9 10 11 10 9 7 8 10 9 5 5 7 7 6 5 5 5 6 5 5 4 3 3 2 2 2 1 1 1 2 2 1 1 1 1 1 2 2 2 3 3 3 4 4 3 3 3 3 3 4 5 5 4 4 4 5 5 6 6 6
13 12 12 12 10 8 8 9 9 8 6 6 7 7 6 3 4 5 6 7 7 8 8 7 8 9 10 10 9 8 9 10 11 10 7 3 5 9 9 8 8 8 8 8 8 7 6 5 4 4 3 3 3 3 2 2 2 2 2 2 2 2 2 3 3 4 4 5 5 4 4 4 5 5 4 4 4 5 5 5 6 6 7 7 8
12 11 13 13 11 9 9 8 8 7 6 7 8 8 7 4 4 7 7 6 6 7 7 7 7 9 10 9 6 6 8 9 9 10 8 3 2 6 9 10 11 10 10 9 9 9 8 8 7 6 6 5 5 4 4 3 3 2 2 3 3 3 3 3 3 3 3 4 4 4 5 5 6 7 6 5 6 6 6 7 7 7 8 8 9
11 9 11 13 14 18 20 17 12 10 8 7 7 7 7 5 5 7 7 6 6 6 7 8 7 9 10 9 7 8 8 8 8 9 9 6 3 2 5 8 9 10 11 10 9 9 9 8 8 7 7 7 6 5 5 4 4 4 4 4 3 3 2 2 2 3 3 3 4 4 5 6 6 7 8 7 6 6 7 7 7 8 8 9 10
11 9 11 15 18 22 25 24 19 15 13 10 9 9 9 7 6 7 6 6 5 5 7 7 5 6 9 9 7 6 8 8 8 9 9 7 6 2 1 3 4 5 8 10 10 9 8 8 8 8 8 7 7 6 6 5 4 4 4 3 3 2 2 2 2 2 3 3 4 5 5 6 7 7 7 6 6 6 6 7 7 8 9 9 10
10 9 11 12 12 13 16 17 15 12 11 10 8 7 6 5 5 4 4 6 5 3 5 6 6 7 8 9 6 5 7 7 8 10 8 7 6 5 3 2 2 2 3 7 10 10 9 9 8 8 8 8 8 7 6 6 5 4 4 3 2 2 2 2 2 3 3 4 5 6 6 6 7 6 6 6 6 6 6 7 8 8 9 10 10
7 7 7 6 7 9 10 10 10 9 8 8 7 7 6 5 4 3 1 2 5 6 6 8 9 8 8 8 6 8 7 5 7 10 8 8 8 8 7 5 4 2 1 2 8 10 9 10 9 9 9 8 8 8 7 6 5 5 4 4 3 3 3 3 4 4 4 5 5 5 6 6 5 5 5 6 6 6 7 8 9 9 10 11 10
4 5 6 6 6 9 8 8 8 7 6 7 7 6 6 6 5 4 2 2 2 6 9 10 11 10 10 9 6 6 5 4 8 8 7 6 8 9 7 5 7 4 2 3 5 7 6 8 8 9 10 10 10 9 8 8 6 6 5 5 5 5 5 5 5 5 5 5 5 4 4 4 4 4 5 6 7 7 8 9 9 10 11 11 10
5 5 5 6 6 8 8 7 6 5 6 7 7 6 6 6 5 4 3 4 3 3 5 6 8 11 11 8 6 6 6 8 8 8 8 7 7 9 5 3 6 5 4 6 3 4 4 6 5 5 9 10 12 11 10 10 9 7 6 6 5 5 5 4 4 4 4 4 3 3 3 3 3 4 4 5 7 7 8 9 9 10 10 10 9
5 4 5 7 7 7 7 6 5 3 5 7 7 6 6 6 5 4 4 3 3 4 5 5 9 12 11 7 6 6 7 7 6 8 10 9 7 8 7 6 7 6 5 7 4 3 3 3 2 2 6 8 9 11 11 12 12 9 7 5 4 4 3 3 3 3 3 2 2 2 3 3 4 4 5 5 6 7 8 8 9 9 9 9 8
4 4 7 7 6 6 5 5 4 4 5 6 7 6 5 5 4 4 2 3 1 4 5 6 9 11 10 8 6 5 5 6 7 9 10 9 7 7 8 8 7 6 5 6 7 5 3 2 2 1 5 7 6 7 9 12 13 10 8 6 5 4 3 3 3 3 3 3 3 3 3 4 5 5 6 6 6 6 7 8 8 8 9 9 8
4 4 6 7 6 5 4 4 4 5 7 7 6 5 5 4 5 4 3 4 2 5 7 7 6 7 7 8 8 6 5 6 8 11 11 9 7 7 7 9 8 6 5 6 7 5 5 7 5 3 5 7 4 3 5 10 11 9 9 7 6 5 4 4 4 4 4 4 4 4 4 5 5 6 6 7 7 7 7 8 8 8 8 8 8
4 3 5 6 6 4 4 4 4 5 6 5 5 5 5 4 4 4 4 4 6 5 4 2 2 7 8 7 8 6 6 8 9 12 13 10 8 9 9 10 9 6 6 5 6 6 5 7 8 5 5 5 5 3 4 8 10 9 8 7 7 6 5 5 4 4 4 4 4 5 6 6 7 7 8 8 8 8 8 8 8 8 8 8 7
4 4 3 5 5 4 4 4 4 4 5 4 4 4 4 3 3 5 6 2 4 5 2 5 2 7 7 3 4 5 5 7 8 10 13 11 10 11 8 7 8 6 7 7 6 6 3 5 7 5 4 5 6 3 3 7 9 8 9 7 5 5 5 5 5 5 5 5 6 6 7 8 8 9 9 9 10 9 9 9 9 8 8 8 8
5 3 3 4 4 3 4 4 4 4 4 4 3 3 3 4 5 6 9 6 4 5 4 7 8 6 2 1 1 1 0 2 3 6 5 10 11 10 9 7 6 7 8 9 6 4 4 6 7 4 3 4 5 4 3 6 9 9 9 8 6 5 5 6 6 7 7 7 7 8 9 9 10 10 10 10 11 11 10 10 9 9 9 8 8
5 4 3 4 3 3 4 4 3 3 2 2 2 2 3 5 6 5 7 10 8 5 5 6 9 8 4 2 3 2 2 3 4 7 7 4 8 8 10 9 6 6 8 9 6 5 6 5 5 4 3 3 3 4 5 5 7 8 10 9 7 7 7 7 8 8 8 9 9 10 10 11 11 11 11 11 12 12 12 11 10 10 9 9 8
5 4 4 4 3 2 3 3 3 2 2 3 2 2 4 5 5 5 6 9 10 6 6 6 7 7 6 6 6 3 4 7 5 3 7 9 6 4 11 10 8 6 5 9 8 3 4 6 6 6 4 2 2 3 4 3 2 5 8 9 8 8 8 8 9 10 10 11 11 11 12 12 12 12 13 13 13 13 13 12 12 11 10 9 9
6 5 5 4 3 2 2 3 3 2 2 3 1 2 5 6 5 6 7 8 11 10 8 7 7 7 7 7 7 6 7 8 5 1 3 9 11 7 5 6 8 7 4 6 8 3 3 8 9 5 4 3 3 2 1 1 2 5 6 8 9 9 8 9 9 11 12 12 13 13 13 13 14 14 15 15 15 14 14 13 13 12 11 10 10
6 6 5 4 3 3 2 2 2 3 2 2 1 3 6 6 6 6 6 7 10 11 9 7 6 6 7 9 7 5 6 8 6 3 2 3 7 11 10 5 4 8 5 4 7 5 4 9 8 4 4 5 4 2 1 2 3 6 6 6 9 10 9 9 10 11 13 14 14 14 15 15 15 16 17 17 16 14 13 13 13 13 12 11 11
6 6 5 5 4 4 3 2 2 3 2 1 1 3 5 6 6 6 6 5 7 9 9 7 5 6 8 9 9 6 6 6 5 4 5 3 3 5 7 7 7 7 5 3 4 2 4 8 7 6 4 4 3 2 3 4 5 7 7 7 9 10 11 10 10 11 12 13 15 15 16 16 16 17 16 15 14 13 13 13 14 13 12 12 11
6 6 6 6 5 4 4 3 3 4 2 1 2 3 4 5 5 6 6 5 6 6 6 6 6 6 5 4 7 8 7 6 6 7 8 5 2 3 6 7 6 7 8 4 2 2 4 5 5 8 6 4 3 1 1 4 6 6 9 10 10 11 12 12 12 11 12 14 15 16 16 16 16 15 14 13 13 13 13 14 14 14 13 12 11
8 7 7 7 6 5 5 4 4 4 2 1 2 3 3 4 4 5 5 5 5 4 4 4 3 3 4 3 4 4 6 6 6 6 7 4 2 2 3 4 3 3 7 7 7 5 4 5 4 8 7 3 3 1 2 5 6 6 10 10 10 12 14 15 14 13 13 15 17 18 17 16 15 13 13 13 14 14 14 14 15 14 13 13 13
9 9 8 8 7 7 5 5 5 4 3 2 2 4 4 4 4 4 4 4 4 3 3 3 2 2 3 4 2 2 4 7 6 3 5 3 3 3 3 4 3 3 6 7 9 10 5 6 7 6 4 1 3 5 5 6 7 9 10 10 11 14 15 17 16 14 14 16 18 18 17 15 14 13 13 14 15 15 15 15 15 15 15 14 14
10 10 9 9 9 8 6 5 5 4 4 3 2 3 4 5 5 3 3 3 3 2 2 3 2 2 2 3 3 2 2 6 4 4 5 2 3 5 5 6 5 4 3 5 8 9 3 3 4 2 1 4 5 7 9 9 10 10 11 12 14 14 15 16 15 14 14 16 18 18 16 14 13 13 14 14 15 15 15 15 15 16 16 16 16
11 11 10 10 10 9 8 7 6 6 5 4 3 3 3 4 5 4 3 3 2 2 1 1 1 1 1 2 2 2 1 3 3 2 3 2 1 2 3 5 7 6 3 3 5 5 2 1 1 3 6 8 8 9 10 11 11 10 12 15 14 14 14 15 14 14 15 17 19 18 15 14 13 14 14 15 16 16 16 16 16 17 17 17 17
11 11 10 11 10 10 9 8 7 7 6 6 5 5 5 4 4 3 3 3 3 3 2 1 2 2 1 2 2 3 2 2 1 4 2 2 3 3 1 1 3 6 5 4 7 6 3 5 7 7 8 8 9 10 10 12 13 13 16 17 14 13 15 16 16 16 17 19 20 18 15 14 14 14 15 16 16 16 17 17 17 17 17 18 18
10 10 10 11 11 10 10 9 8 8 7 7 6 6 7 5 5 5 3 3 4 4 2 2 3 3 3 3 2 3 2 2 2 5 1 4 3 3 3 3 2 2 4 4 6 6 5 7 8 8 8 6 8 11 10 12 13 14 15 14 12 12 15 17 18 19 21 22 22 19 15 14 14 15 16 16 17 17 17 17 18 18 18 18 18
11 10 10 11 11 10 10 9 9 9 8 8 8 7 7 6 6 6 5 4 5 4 3 3 3 3 4 5 4 3 4 4 3 3 3 4 5 4 4 4 3 2 1 2 3 6 9 9 9 8 7 5 9 13 13 11 10 11 11 11 11 14 16 18 20 23 24 23 21 19 17 14 14 16 17 17 17 17 17 18 18 19 19 19 18
11 11 11 11 11 11 11 10 10 10 9 9 8 8 8 7 7 7 6 6 4 4 4 4 4 4 4 4 4 3 4 5 5 6 5 4 6 6 5 5 5 4 2 2 2 5 8 9 10 10 8 8 10 13 14 13 11 12 11 12 14 15 17 19 22 24 22 19 18 19 17 15 15 17 18 18 18 17 17 18 19 19 19 19 19
12 12 12 12 12 11 11 10 10 10 10 9 9 9 9 8 8 7 7 8 6 5 5 5 5 5 5 4 3 3 4 4 5 7 5 4 5 6 6 6 6 5 6 4 2 4 8 9 12 12 11 13 13 12 13 13 13 13 14 16 17 16 18 20 22 22 18 16 18 19 18 15 16 17 17 18 18 17 17 19 20 20 20 20 19
13 13 12 12 12 12 11 11 11 11 11 10 10 10 10 9 9 8 8 9 8 7 6 6 6 5 4 5 4 4 5 5 5 6 5 6 7 6 6 7 7 8 9 8 5 7 10 10 12 13 12 13 14 14 13 12 12 13 15 17 17 17 19 20 21 20 18 18 21 20 16 15 18 18 17 19 19 17 18 20 21 20 20 20 20
12 12 12 12 12 12 11 11 11 11 11 11 10 11 11 10 10 8 6 8 9 7 6 6 6 6 5 5 6 6 6 6 6 6 7 8 7 7 8 8 8 8 8 8 8 8 10 11 12 14 13 14 15 14 13 13 13 14 15 16 16 17 18 19 19 18 18 21 21 18 15 18 22 21 19 20 19 18 19 21 22 21 20 20 20
12 12 12 12 12 12 11 11 11 11 12 11 10 11 11 10 10 9 8 9 8 7 7 7 7 7 7 7 7 7 7 8 8 7 8 8 7 7 7 7 9 8 7 9 10 7 9 12 12 13 14 14 14 14 14 14 15 15 16 16 15 15 16 17 18 17 18 20 19 18 19 22 23 21 20 21 20 19 21 23 24 22 21 21 20
12 12 11 11 12 12 11 11 11 11 12 12 11 10 11 11 10 10 9 9 9 8 8 8 8 8 8 8 8 8 8 9 9 7 6 7 7 7 5 5 7 8 7 9 10 8 9 12 12 13 14 13 14 14 14 15 14 14 15 15 15 15 16 17 17 17 18 19 19 20 21 22 21 21 23 23 20 19 23 26 25 24 22 21 20
12 12 12 11 11 11 11 11 11 11 11 11 11 10 11 11 10 10 9 8 8 9 9 9 9 9 9 9 9 8 8 8 7 6 6 8 8 7 7 6 7 8 8 8 9 9 10 12 13 13 13 14 15 15 14 14 14 13 14 14 15 16 17 16 16 17 17 19 20 20 21 22 23 24 24 21 18 21 26 27 26 25 23 21 20
10 11 11 11 11 12 11 10 11 11 11 10 11 11 10 10 10 10 10 9 9 10 10 9 9 9 9 9 9 8 8 8 8 7 8 8 7 6 7 7 8 8 7 8 9 10 12 13 13 14 15 15 16 16 13 13 14 13 14 15 16 16 17 15 15 15 17 18 18 19 22 23 24 24 21 19 21 25 27 27 27 26 24 22 21
10 11 11 11 11 12 12 11 11 11 11 11 11 11 10 10 10 10 9 10 10 10 10 10 10 10 9 10 10 9 9 9 9 8 8 7 7 7 8 8 8 8 9 10 11 11 13 14 14 16 17 16 16 15 13 12 13 16 18 18 17 17 17 16 15 15 15 16 18 21 22 22 22 22 21 23 25 27 27 28 28 26 24 23 22
11 11 11 10 10 11 11 10 10 11 11 11 11 11 11 9 9 10 9 10 11 11 11 10 11 10 10 11 11 11 12 12 10 10 9 8 8 8 9 8 8 9 10 11 11 11 12 13 13 15 15 15 15 16 16 15 16 19 20 20 20 18 16 14 14 14 16 19 23 22 20 19 21 22 23 25 26 28 29 28 26 24 23 23 21
11 11 11 10 8 9 11 10 10 10 12 12 11 11 11 10 9 9 9 10 11 12 12 11 11 11 11 12 12 13 14 15 14 11 8 8 8 8 8 7 7 9 9 10 11 12 12 13 13 15 15 16 17 18 19 18 18 18 17 17 18 16 14 14 16 18 21 23 23 21 19 20 23 25 26 27 29 30 28 25 24 23 21 19 17
10 10 10 10 9 10 11 10 9 9 10 12 12 11 11 11 10 9 9 10 11 12 12 11 11 11 11 11 12 12 11 12 14 13 11 11 11 10 10 10 9 9 10 11 12 13 13 13 14 15 15 16 16 18 17 16 16 16 15 15 15 16 18 20 21 21 21 22 22 22 22 23 26 28 29 29 31 29 26 24 24 22 19 17 17
10 10 9 10 11 12 12 11 11 10 10 11 12 12 12 13 11 10 10 11 11 12 12 12 11 11 11 11 12 12 11 10 12 13 13 13 13 14 15 14 13 12 12 12 12 13 14 14 14 14 14 15 15 15 16 16 17 16 17 18 19 20 21 21 20 20 19 20 22 24 26 28 28 30 30 29 29 27 24 24 23 20 20 20 20
6 7 8 8 8 9 10 11 10 10 10 11 13 15 15 15 13 11 10 10 9 10 11 12 12 11 11 12 12 13 14 13 13 14 14 14 13 13 14 14 14 15 16 16 16 15 15 15 15 14 14 15 15 15 16 17 16 17 18 19 20 20 20 17 17 19 20 21 23 26 32 33 28 27 28 28 27 25 22 21 20 20 21 22 21
5 7 7 5 5 6 7 7 4 3 7 8 10 14 16 17 16 14 10 9 10 10 10 11 13 13 12 13 13 12 12 12 11 10 11 11 10 10 12 12 13 14 15 17 19 19 18 16 16 15 15 16 17 16 15 15 16 18 19 19 18 18 18 17 16 20 23 25 26 28 32 33 28 26 27 27 26 25 22 22 21 20 19 20 20
4 5 6 4 3 5 6 6 7 4 1 3 5 9 12 15 16 16 13 9 10 11 12 12 13 12 11 11 11 10 11 11 11 8 5 7 9 11 13 14 15 15 15 16 18 20 22 21 21 20 19 18 18 18 17 17 19 19 17 17 17 17 19 19 20 24 28 28 27 27 30 31 27 25 26 27 25 23 23 23 21 18 19 21 23
5 5 4 3 4 6 5 3 4 4 3 1 2 5 8 10 12 13 12 9 8 10 13 14 12 9 7 7 8 10 11 11 11 9 6 5 7 10 12 13 14 15 15 16 17 19 20 22 24 25 25 23 21 20 19 17 17 17 17 18 19 18 20 22 24 27 28 25 24 24 24 25 25 24 25 25 23 23 23 23 21 21 22 23 23
3 3 3 3 4 5 4 2 2 2 3 2 2 3 5 7 8 8 9 9 9 10 10 11 10 9 8 8 8 9 9 8 9 10 9 7 7 8 10 11 12 14 15 16 17 17 16 16 19 22 24 24 22 20 17 15 16 18 19 19 19 20 22 23 24 24 22 20 20 19 18 20 22 23 23 23 22 23 24 22 22 22 22 22 22
1 0 1 2 3 2 1 3 3 3 3 3 3 4 4 6 6 5 5 7 8 8 7 8 10 9 9 8 6 5 5 5 7 9 9 9 9 9 10 11 12 14 15 15 14 13 12 12 12 13 15 16 17 16 16 16 17 18 19 20 21 20 19 20 20 20 18 17 18 18 18 19 19 20 22 23 23 25 26 23 21 20 21 22 23
4 4 4 4 5 4 3 5 6 5 4 4 4 5 6 6 6 5 4 5 7 7 6 7 8 7 7 5 3 3 4 5 7 8 9 10 10 9 10 11 12 13 14 12 11 11 12 12 12 11 11 12 13 15 16 17 16 16 16 18 19 17 16 15 15 16 18 18 16 16 16 17 18 20 23 25 27 28 26 23 21 21 22 22 21
8 7 7 7 7 6 5 6 7 6 5 4 5 6 7 7 6 5 5 5 6 6 5 5 5 5 5 5 3 3 5 8 9 11 11 11 11 10 10 11 12 13 12 11 12 14 15 15 15 16 16 15 15 16 17 18 18 17 16 15 15 16 15 14 14 17 18 16 14 15 17 19 20 20 22 26 29 29 25 23 24 25 23 22 24
9 9 9 10 11 9 7 4 3 3 4 4 4 5 5 4 4 4 4 3 3 4 4 4 3 3 4 6 6 5 7 9 10 11 11 11 11 10 9 10 11 12 12 14 17 18 18 18 18 17 16 15 15 15 16 16 15 17 16 14 14 15 15 15 16 16 14 11 14 18 21 24 24 22 21 20 19 21 23 23 25 26 26 26 26
Wind_Direction
140 141 128 119 119 122 125 130 134 140 146 135 126 137 148 136 131 145 147 151 155 154 152 143 135 135 136 130 123 124 128 133 138 152 137 73 67 92 106 110 118 119 121 127 132 145 161 159 160 169 167 161 166 71 99 127 137 300 126 280 295 319 329 338 356 11 8 356 11 12 357 3 1 353 357 357 343 326 307 300 300 293 302 303 287
143 143 134 130 143 162 161 147 137 145 151 127 124 141 150 153 166 173 160 154 154 158 158 152 145 148 153 146 140 139 140 138 133 139 138 82 70 85 95 102 101 103 104 97 99 108 116 129 144 148 153 157 148 86 68 83 77 19 21 337 331 359 5 24 34 30 6 358 8 5 353 352 344 335 339 342 337 329 311 297 300 290 288 291 285
148 146 142 149 164 173 167 148 123 126 147 130 128 146 139 146 187 175 160 155 160 162 156 153 149 148 147 143 144 149 154 152 135 130 137 112 74 81 84 93 95 91 89 86 86 87 87 88 91 95 94 96 91 83 75 69 64 49 37 32 35 43 41 44 44 37 20 10 13 9 358 349 338 327 315 312 309 306 299 293 293 290 285 286 283
158 159 156 161 169 161 153 151 122 117 149 131 114 122 119 119 166 163 155 155 168 174 161 151 150 147 137 128 119 118 135 146 131 124 137 156 100 80 77 83 86 85 80 77 79 78 79 78 78 78 75 75 76 75 76 74 72 63 60 60 58 61 53 43 41 33 20 7 3 359 350 340 331 322 308 299 294 290 290 287 283 283 283 283 282
163 161 153 154 164 166 166 166 150 129 138 139 132 148 151 147 159 161 161 161 176 188 162 142 152 158 140 121 113 115 122 131 133 135 135 146 163 80 61 78 79 77 75 69 70 71 72 71 69 68 66 64 62 62 64 66 68 66 66 67 64 62 53 35 28 15 359 352 347 342 337 330 325 317 306 298 295 292 291 289 286 286 284 284 285
154 151 160 166 169 167 163 160 154 146 150 158 168 186 183 163 154 165 170 167 187 196 158 135 126 125 115 114 130 140 130 122 124 131 125 131 152 153 56 57 53 63 68 64 60 61 65 64 62 60 56 54 51 50 48 48 50 53 53 56 56 50 40 25 7 356 347 343 340 337 334 331 325 319 311 305 303 300 299 297 295 295 293 293 293
150 158 171 174 162 144 139 143 144 140 144 148 152 163 163 151 157 169 156 156 162 134 135 139 116 90 87 102 112 103 111 121 124 122 120 126 130 138 131 42 9 14 36 55 52 50 60 60 58 56 50 45 39 36 33 31 28 25 25 20 17 10 359 353 344 339 338 336 335 336 336 336 332 330 328 325 325 321 315 309 305 304 301 299 296
138 149 145 139 127 113 112 121 123 119 119 127 132 125 117 116 132 141 97 173 168 135 129 139 134 130 123 118 107 104 120 149 141 122 116 127 121 122 121 89 100 135 271 79 50 45 55 56 56 54 48 38 29 25 18 14 8 1 354 345 336 330 327 327 330 329 331 332 332 336 339 340 341 342 342 340 338 334 325 319 315 311 307 303 298
121 123 117 114 113 111 112 112 116 115 100 107 121 119 113 99 102 123 41 341 183 149 152 154 148 146 135 126 121 122 117 95 113 118 109 128 136 134 130 91 96 114 179 143 43 32 43 40 45 52 51 44 32 25 18 11 1 350 340 330 323 318 318 319 323 327 329 331 334 340 345 347 350 348 346 341 336 332 327 323 318 314 311 310 307
113 97 99 112 114 115 118 112 111 101 87 101 112 111 106 92 87 94 56 14 9 96 137 148 138 129 116 112 121 124 117 103 116 143 132 117 128 130 132 106 95 86 123 135 56 25 43 26 25 50 48 41 36 31 26 21 10 356 340 330 325 320 321 323 325 328 332 337 345 356 5 2 2 356 352 346 339 334 329 326 321 318 318 318 319
120 98 96 109 115 116 113 110 112 94 90 103 102 91 85 82 80 68 49 358 5 61 82 58 67 95 106 108 114 114 131 145 151 154 136 119 125 120 106 113 116 98 113 139 123 78 73 21 332 48 35 16 27 32 30 28 18 11 4 352 345 334 333 338 340 349 354 9 19 29 35 22 16 7 1 356 348 342 336 333 328 324 322 324 326
148 121 104 108 119 118 114 112 105 77 75 87 88 78 71 68 59 56 8 302 347 74 86 83 76 88 109 120 123 133 164 182 167 150 135 127 140 131 112 112 123 127 125 136 132 117 98 63 307 3 22 355 14 33 31 34 25 22 26 19 19 11 11 19 26 46 51 60 60 50 45 31 22 15 9 4 358 351 345 342 338 330 325 326 327
163 141 108 109 123 120 109 103 93 78 69 75 84 69 63 58 33 38 347 325 52 89 80 90 112 116 125 139 142 148 169 184 173 157 140 127 139 148 139 127 118 119 121 134 135 112 86 85 79 54 10 343 1 28 28 37 32 38 46 41 43 44 51 59 64 72 69 63 55 43 35 26 18 12 9 5 360 355 350 347 345 338 331 327 326
157 143 107 107 122 118 102 94 91 93 82 75 78 62 59 56 27 19 339 352 45 76 82 32 198 162 150 147 148 159 192 207 195 161 140 126 137 153 155 136 127 116 92 108 136 123 94 82 87 70 14 6 29 11 7 34 34 44 54 56 58 55 55 56 55 54 45 34 26 18 13 7 2 358 357 355 352 351 348 347 345 341 336 331 327
147 132 98 98 117 117 105 97 86 92 92 82 71 53 43 51 48 13 341 343 69 73 20 342 8 148 150 145 157 174 215 223 196 152 144 150 150 155 157 128 134 150 109 97 119 135 115 71 85 76 29 40 49 26 2 17 15 27 38 40 42 35 27 17 12 11 4 1 357 354 353 349 347 345 344 343 342 342 341 342 340 338 337 335 332
152 143 119 108 118 112 103 108 99 86 83 82 75 56 37 43 59 31 3 3 71 80 35 16 51 85 120 271 266 128 152 228 147 82 113 160 152 145 144 121 130 168 149 127 124 146 144 88 77 74 52 52 60 73 62 6 353 1 18 24 22 14 8 357 354 351 348 347 343 341 341 339 339 339 339 338 337 336 335 334 333 331 331 332 333
161 152 139 128 128 107 106 113 104 97 100 97 69 69 82 56 44 37 24 17 23 60 71 61 69 58 44 52 26 36 333 347 68 33 12 107 128 133 143 134 130 150 157 156 147 144 155 123 79 85 69 48 63 77 71 27 354 349 2 15 22 18 12 360 351 346 341 339 336 335 334 333 334 334 336 337 336 334 332 331 329 326 323 323 326
165 152 146 148 144 119 119 124 118 130 130 114 102 84 94 78 49 39 42 32 21 44 77 66 69 53 37 59 61 49 0 9 33 21 8 25 39 145 164 152 128 122 158 167 158 140 174 164 120 92 62 48 99 91 80 64 351 334 353 6 12 15 15 4 350 340 334 332 330 329 328 328 328 328 329 331 331 330 329 329 329 326 321 315 315
166 158 156 159 156 154 145 137 140 146 104 100 132 111 86 79 73 57 50 50 45 55 59 36 42 49 32 51 63 43 39 42 34 22 20 7 5 31 108 140 135 150 185 160 150 138 142 148 131 95 66 76 97 104 101 54 336 326 345 357 354 358 3 360 350 337 330 326 324 323 323 323 323 324 324 323 324 324 324 325 327 327 324 316 309
169 166 166 167 170 174 166 158 161 163 162 155 147 111 98 90 87 73 55 56 62 64 58 34 28 35 36 45 43 34 62 63 37 26 50 354 355 20 35 39 107 141 157 136 140 149 137 136 137 128 103 91 90 90 353 5 327 308 324 346 342 342 346 351 347 336 328 323 321 320 319 319 318 318 319 319 320 319 319 321 323 325 324 321 313
172 171 172 175 181 181 178 186 171 168 181 175 132 123 110 106 102 92 78 67 68 61 56 57 43 35 49 44 23 24 66 60 38 58 65 45 338 2 25 9 17 60 68 88 124 136 141 130 137 156 137 103 98 47 357 341 316 305 320 340 340 336 338 343 342 337 332 327 325 322 319 317 315 316 318 320 321 320 319 320 321 321 318 318 317
177 179 182 183 188 187 187 194 184 188 199 107 122 138 119 116 109 101 100 85 78 66 56 64 49 42 66 53 15 22 42 28 13 49 64 55 28 11 16 1 359 28 28 19 345 302 166 141 148 168 151 120 126 70 309 289 304 309 313 319 328 331 331 333 333 334 336 334 333 328 324 322 320 320 322 323 324 322 320 319 319 316 311 308 311
184 184 189 190 192 194 193 193 191 195 190 124 137 152 138 139 127 112 112 95 91 91 72 65 40 40 67 52 22 16 36 25 352 24 51 38 28 20 14 24 23 356 353 354 356 10 125 117 101 137 133 137 199 268 277 269 286 301 306 312 322 325 323 321 318 320 328 333 334 331 328 326 325 325 326 325 324 321 318 316 315 312 306 301 301
187 186 192 192 193 196 196 196 195 193 183 176 194 179 151 140 135 127 124 107 98 94 71 65 30 23 52 43 359 270 25 26 352 31 73 52 20 359 351 23 12 302 319 332 356 16 62 82 67 102 112 30 286 307 317 302 303 310 314 319 319 318 318 315 309 308 319 329 332 332 331 329 328 328 328 327 325 322 319 315 312 310 305 300 297
189 189 193 190 193 194 191 194 191 189 188 184 182 165 138 134 141 145 143 131 123 119 85 76 41 4 35 19 336 270 34 38 28 78 92 71 44 30 6 348 321 294 308 322 344 357 8 90 75 119 268 328 319 316 314 307 310 315 312 312 317 320 318 311 303 302 312 324 329 330 332 331 331 331 332 332 330 327 323 318 313 309 307 304 300
192 194 194 188 190 193 191 195 190 193 199 187 168 156 149 150 155 166 176 166 158 160 139 109 170 230 265 343 332 287 354 74 87 48 24 3 46 68 21 339 319 313 320 317 318 320 294 267 275 251 267 282 298 317 320 310 309 309 302 301 312 325 322 309 302 303 309 318 322 324 329 332 332 334 334 334 333 331 328 323 318 313 309 307 305
196 195 196 190 190 193 192 196 195 196 197 187 180 186 194 180 165 183 191 172 176 189 200 187 190 202 226 283 235 223 295 39 40 307 340 138 184 160 106 2 327 321 328 327 308 289 257 269 276 279 279 282 305 326 329 320 307 292 291 296 303 317 321 314 309 306 305 310 315 315 320 329 331 332 334 332 332 332 331 329 324 319 315 311 308
195 194 197 192 192 195 192 196 198 196 196 190 187 196 200 193 191 201 198 191 194 197 215 215 207 205 214 247 224 184 256 299 286 285 222 156 192 185 169 158 137 319 324 333 320 312 304 291 285 284 278 291 330 332 321 320 314 300 298 304 303 307 315 315 310 306 303 306 309 304 306 319 326 329 332 331 331 332 331 331 328 325 321 317 313
190 191 196 193 193 196 193 197 199 195 199 195 192 202 200 196 207 207 205 220 206 184 212 233 225 226 215 220 216 199 238 241 217 244 238 214 225 221 208 200 188 201 282 303 305 313 313 309 307 299 274 282 332 330 311 307 317 319 319 320 312 305 308 308 306 306 304 302 300 293 292 304 317 324 329 330 332 333 332 332 329 326 323 319 316
192 191 194 193 195 199 196 199 199 195 201 199 197 206 202 199 216 216 212 229 222 194 220 238 227 231 225 208 204 208 229 222 203 217 236 227 219 227 227 223 222 213 215 266 282 296 304 309 312 312 303 295 313 323 312 306 313 319 321 320 314 307 302 304 306 307 307 302 295 287 284 292 307 317 324 327 330 334 335 334 331 327 322 317 314
194 192 192 194 195 199 198 199 201 198 201 202 200 206 206 205 217 223 220 225 231 228 230 240 237 231 229 219 215 217 224 243 238 228 231 233 223 226 225 221 224 223 226 229 234 279 296 305 304 306 310 305 306 312 310 307 307 306 307 310 310 306 303 305 306 310 314 310 304 296 285 288 302 311 319 324 327 332 335 335 334 330 323 316 311
193 191 193 196 195 197 200 201 204 201 201 203 201 205 209 210 216 227 224 213 217 231 236 243 247 240 231 223 226 232 234 253 261 250 255 256 244 239 236 228 228 231 232 225 223 263 281 290 294 297 302 304 306 308 305 302 300 299 302 306 307 306 304 303 303 310 316 312 310 304 291 295 306 308 314 320 320 325 330 333 334 332 327 320 311
193 191 196 199 196 198 202 204 206 205 204 205 204 206 210 214 218 226 228 216 216 227 237 246 253 253 248 236 237 242 243 250 257 264 270 261 249 246 244 242 243 241 237 231 234 265 282 288 292 295 299 299 299 303 305 305 304 303 303 304 303 303 305 307 309 314 313 308 311 310 303 310 314 309 310 314 314 318 325 330 330 328 327 324 315
197 197 198 200 200 201 204 206 207 208 207 206 209 209 210 217 221 221 228 232 230 232 239 246 250 255 255 248 246 246 246 248 245 251 265 267 266 257 242 243 250 253 256 246 236 250 282 293 295 295 298 299 299 304 308 307 306 305 305 305 305 306 309 312 316 316 310 312 321 322 316 318 317 312 311 311 309 313 322 326 326 323 322 324 320
196 201 200 199 201 204 208 209 207 206 204 204 211 215 214 220 223 225 232 231 226 230 240 245 245 249 251 248 249 248 248 250 244 243 259 270 280 281 267 258 256 260 267 251 240 251 277 286 291 293 297 300 302 304 304 304 304 304 306 309 308 307 309 312 313 311 309 317 325 323 320 324 324 319 316 312 307 312 321 323 320 317 317 318 319
195 201 202 200 200 200 208 213 208 206 203 203 213 220 220 221 224 233 243 238 232 236 242 246 245 246 249 251 255 254 255 260 256 253 260 262 268 273 270 267 263 266 267 254 256 273 277 280 287 291 294 297 297 297 295 298 303 304 303 303 303 305 307 308 310 310 314 319 322 325 330 331 325 317 316 317 316 317 321 320 317 315 313 311 313
201 198 199 202 203 200 205 213 210 208 209 208 215 223 225 224 225 233 241 242 245 248 249 253 254 254 254 255 260 262 261 263 259 252 254 258 262 260 260 264 261 260 262 260 267 274 273 277 284 288 290 291 291 292 291 293 299 300 296 294 296 300 302 302 306 311 316 318 320 327 328 323 318 317 320 326 326 322 320 318 317 315 311 306 305
209 204 202 203 204 203 208 216 214 213 218 219 220 225 229 230 229 232 238 243 247 249 252 256 255 256 256 254 257 259 257 258 259 256 256 261 267 265 263 265 263 262 263 265 269 269 267 270 274 280 287 289 291 296 298 296 294 291 289 289 291 295 297 297 301 309 315 314 315 318 318 318 320 321 322 323 320 318 317 317 315 312 308 303 300
213 205 203 206 208 210 215 222 222 218 220 225 227 227 230 234 237 235 238 246 249 248 250 255 255 254 254 255 255 252 251 250 251 255 258 261 263 267 268 268 267 269 268 270 274 276 277 280 281 285 291 294 298 303 303 296 287 283 284 284 285 293 302 304 308 316 317 313 313 315 316 316 317 316 316 315 314 315 316 316 313 311 311 308 302
222 210 204 208 213 215 219 225 230 227 225 229 232 233 234 238 243 244 243 249 255 255 252 253 254 254 256 257 258 257 253 246 241 244 254 263 266 268 272 274 274 277 280 282 285 287 289 289 288 290 294 295 295 295 293 288 283 283 289 289 289 304 323 326 323 321 317 314 314 314 312 312 312 313 313 312 313 315 317 317 315 314 314 315 310
224 223 212 205 211 223 227 226 229 230 229 231 232 234 238 240 243 251 254 253 257 263 264 262 259 260 261 261 263 267 264 249 241 237 234 244 255 260 266 272 274 280 286 285 285 286 288 286 285 286 289 291 293 295 298 301 302 306 317 323 324 330 332 327 321 317 316 315 313 311 311 312 312 312 312 312 314 316 317 315 313 309 310 317 319
231 240 230 214 218 226 224 222 229 232 232 240 241 236 235 237 238 246 254 256 259 267 272 273 274 273 272 274 277 282 287 276 257 245 240 245 255 262 267 270 270 271 277 281 283 284 285 285 286 290 292 293 299 308 316 321 321 326 337 342 338 331 325 321 317 316 318 317 315 314 312 312 313 312 312 313 314 316 317 316 313 311 312 316 317
278 280 265 249 253 250 232 231 235 222 214 233 240 232 231 235 235 239 250 259 264 267 268 271 278 282 282 285 287 288 292 289 275 265 263 263 266 270 270 269 269 269 270 272 273 275 278 282 285 289 292 295 302 310 313 314 318 327 333 330 324 320 317 314 311 312 316 318 317 313 310 312 314 312 311 313 313 314 314 314 314 313 312 315 316
326 335 320 296 307 316 295 288 300 170 186 213 223 220 225 230 229 230 242 262 272 271 269 270 277 283 286 287 291 300 311 313 307 293 273 262 266 273 270 267 270 272 272 272 272 271 273 278 283 285 287 291 296 300 301 305 311 316 317 314 313 311 308 305 303 305 310 315 316 310 307 310 314 311 309 310 311 309 307 307 309 309 311 319 322
277 319 333 325 318 326 324 339 14 47 143 229 223 217 221 225 226 228 237 258 277 281 288 293 291 291 293 291 290 300 310 313 321 329 298 265 269 271 268 268 272 277 282 282 280 276 273 272 275 277 279 281 284 287 294 302 306 309 311 312 314 312 307 304 302 302 307 312 311 304 300 305 312 311 307 310 313 315 317 319 318 317 319 321 318
262 261 268 268 285 301 309 346 17 18 5 339 254 231 224 226 230 233 241 259 279 287 296 305 309 313 318 310 292 290 295 299 310 324 323 306 294 281 275 274 279 287 295 296 293 290 284 279 275 274 276 279 281 286 294 301 306 311 317 318 318 314 309 305 303 304 308 312 309 299 292 302 315 314 308 314 321 323 325 326 324 321 319 317 316
263 259 248 255 293 312 323 32 45 353 342 339 282 257 239 236 240 246 258 276 286 290 294 302 312 321 326 327 322 309 297 293 305 316 318 316 317 307 295 292 296 303 306 301 295 292 293 290 285 283 282 281 281 285 292 299 307 314 316 315 314 313 311 308 308 308 311 317 318 309 299 308 322 319 315 322 327 324 323 323 323 324 322 321 324
224 29 2 344 3 358 22 71 56 8 346 334 309 301 279 262 257 260 277 291 290 294 303 308 315 327 330 333 350 346 312 294 302 314 316 312 314 317 313 310 311 309 306 300 295 296 302 301 297 296 289 282 283 290 298 305 311 314 314 310 309 311 311 309 308 310 314 320 324 322 316 321 331 329 324 326 326 322 321 321 322 323 322 324 326
82 86 78 62 56 63 89 81 60 33 9 353 334 327 318 302 289 280 290 304 296 294 312 326 333 347 348 346 20 31 349 336 329 326 324 320 319 322 321 319 312 305 304 304 298 300 307 306 303 306 304 305 310 311 310 312 312 311 313 315 315 314 309 304 305 311 315 319 326 331 328 328 334 334 327 322 319 316 315 314 314 315 319 321 318
83 89 84 75 71 83 102 88 65 41 15 358 341 333 330 325 319 316 313 313 308 302 311 338 354 6 1 356 11 2 338 335 334 333 331 328 326 325 324 320 311 307 311 314 309 306 307 307 307 309 311 316 321 319 317 317 314 310 310 315 321 320 313 310 314 316 316 320 330 336 331 324 324 327 324 319 316 313 313 314 315 317 320 317 313
85 91 96 93 90 99 121 128 86 48 34 26 12 4 358 348 6 31 19 350 345 354 357 0 8 25 19 7 5 360 344 335 331 332 331 331 330 328 327 323 316 313 313 313 315 316 315 313 312 314 316 315 313 320 327 326 327 328 323 319 322 323 318 317 319 318 316 317 323 327 327 322 320 320 321 320 316 313 316 318 318 319 320 318 318